TimeMDT,TemperatureF,Dew PointF,Humidity,Sea Level PressureIn,VisibilityMPH,Wind Direction,Wind SpeedMPH,Gust SpeedMPH,PrecipitationIn,Events,Conditions,WindDirDegrees,DateUTC
12:58 AM,72.1,62.6,72,29.93,10.0,WNW,3.5,-,N/A,,Clear,300,2013-09-07 06:58:00
1:58 AM,74.1,63.5,69,29.91,10.0,North,9.2,-,N/A,,Clear,10,2013-09-07 07:58:00
2:58 AM,72.5,62.6,71,29.92,10.0,NNW,6.9,-,N/A,,Clear,340,2013-09-07 08:58:00
3:58 AM,70.9,63.1,76,29.96,10.0,NW,8.1,-,N/A,,Clear,320,2013-09-07 09:58:00
4:58 AM,71.4,63.3,76,29.96,10.0,North,5.8,-,N/A,,Clear,350,2013-09-07 10:58:00
5:58 AM,67.1,62.2,84,29.96,10.0,NNW,6.9,-,N/A,,Clear,330,2013-09-07 11:58:00
6:58 AM,65.8,61.7,86,29.97,10.0,West,5.8,-,N/A,,Clear,270,2013-09-07 12:58:00
7:58 AM,71.6,63.5,76,29.98,10.0,North,1.2,-,N/A,,Clear,350,2013-09-07 13:58:00
8:58 AM,76.5,64.2,66,29.98,10.0,South,2.3,-,N/A,,Clear,190,2013-09-07 14:58:00
9:58 AM,81.9,64.9,56,29.96,10.0,Variable,4.6,-,N/A,,Clear,0,2013-09-07 15:58:00
10:58 AM,86.7,63.0,45,29.98,10.0,South,9.2,-,N/A,,Clear,170,2013-09-07 16:58:00
11:58 AM,89.1,61.3,39,29.98,10.0,SSE,13.8,-,N/A,,Clear,150,2013-09-07 17:58:00
12:58 PM,91.4,60.6,36,29.96,5.0,SE,18.4,24.2,N/A,,Haze,130,2013-09-07 18:58:00
1:12 PM,91.4,59.0,34,30.03,6.0,South,16.1,23.0,N/A,,Haze,180,2013-09-07 19:12:00
1:58 PM,93.7,58.5,31,29.92,6.0,SSE,19.6,25.3,N/A,,Haze,160,2013-09-07 19:58:00
2:58 PM,94.5,57.7,29,29.90,6.0,South,16.1,25.3,N/A,,Haze,170,2013-09-07 20:58:00
3:58 PM,93.2,56.8,29,29.89,7.0,South,17.3,23.0,N/A,,Overcast,180,2013-09-07 21:58:00
4:58 PM,94.1,57.2,29,29.88,7.0,South,13.8,23.0,N/A,,Scattered Clouds,170,2013-09-07 22:58:00
5:58 PM,90.7,57.9,33,29.89,9.0,South,12.7,-,N/A,,Clear,180,2013-09-07 23:58:00
6:58 PM,87.4,59.0,38,29.88,6.0,SSE,8.1,-,N/A,,Haze,160,2013-09-08 00:58:00
7:58 PM,82.0,63.3,53,29.88,9.0,SE,12.7,-,N/A,,Clear,130,2013-09-08 01:58:00
8:58 PM,80.6,66.2,61,29.89,9.0,SE,15.0,-,N/A,,Clear,130,2013-09-08 02:58:00
9:58 PM,78.8,64.4,61,29.91,9.0,ESE,11.5,-,N/A,,Clear,120,2013-09-08 03:58:00
10:58 PM,75.0,65.8,73,29.90,8.0,SE,11.5,-,N/A,,Clear,130,2013-09-08 04:58:00
11:58 PM,75.4,63.7,67,29.91,6.0,East,8.1,-,N/A,,Haze,90,2013-09-08 05:58:00